Regional Weather Roundup
Issued by NWS

Home | Current Version | Previous Version | Text Only | Print | Product List | Glossary Off
Versions: 1 2 3 4 5 6 7 8 9 10 11 12 13 14 15 16 17 18 19 20 21 22 23 24 25 26 27 28 29 30 31 32 33 34 35 36 37 38 39 40 41 42 43 44 45 46 47 48 49 50

000
ASUS43 KDTX 222010
RWRMI
MICHIGAN HOURLY REGIONAL WEATHER ROUNDUP
NATIONAL WEATHER SERVICE DETROIT/PONTIAC MI
400 PM EDT MON MAY 22 2017

NOTE: "FAIR" INDICATES FEW OR NO CLOUDS BELOW 12,000 FEET WITH NO
SIGNIFICANT WEATHER AND/OR OBSTRUCTION TO VISIBILITY.

MIZ047>049-052>055-059>063-066>070-074>076-081>083-222100-
SOUTHEAST LOWER MICHIGAN

CITY           SKY/WX    TMP DP  RH WIND       PRES   REMARKS
ADRIAN         MOSUNNY   68  46  45 W13G20    30.00F
ALMA           MOSUNNY   66  44  44 W14G24    29.93S
ANN ARBOR      MOSUNNY   68  48  48 W16G22    29.97S
BAD AXE        PTSUNNY   63  44  49 W16G23    29.91F
CARO           MOSUNNY   66  45  46 W17G23    29.91S
DETROIT CITY   MOSUNNY   68  43  40 W15G24    29.96S
DETROIT        MOSUNNY   69  46  43 W21G26    29.97F
FLINT          MOSUNNY   66  43  43 W20G26    29.93F
GROSSE ILE     SUNNY     68  45  42 W15G23    29.97S
HILLSDALE      PTSUNNY   64  45  48 W10       29.99S
HOWELL         SUNNY     67  40  38 W13G23    29.96R

CITY           SKY/WX    TMP DP  RH WIND       PRES   REMARKS
JACKSON        MOSUNNY   66  45  46 W12G24    29.97S
LAMBERTVILLE   SUNNY     69  46  44 W10G17    29.99S
LANSING        SUNNY     68  43  40 W21       29.95F
LAPEER         FAIR      67  41  38 W10G24    29.93F
MASON          MOSUNNY   67  46  46 W10G21    29.96S
MONROE         MOSUNNY   70  46  43 W17       29.98F
MT. CLEMENS    MOSUNNY   69  46  43 W13G22    29.93F
PONTIAC        MOSUNNY   67  42  40 W18G32    29.94S
PORT HOPE        N/A     61  43  51 W9G20     29.90R
PORT HURON     MOSUNNY   66  41  39 W10G16    29.94S
TRI CITIES     SUNNY     66  44  45 SW20G32   29.90F
MIDLAND        FAIR      68  40  35 W13G24    29.89S
TROY           SUNNY     69  37  30 W15G24    29.97S
SAGINAW HB     SUNNY     68  37  32 W18       29.90F
$$
MIZ043>046-050>051-056>058-064>065-071>073-077>080-222100-
SOUTHWEST LOWER MICHIGAN

CITY           SKY/WX    TMP DP  RH WIND       PRES   REMARKS
BATTLE CREEK   SUNNY     69  45  41 W16G23    29.98S
BENTON HARBOR  SUNNY     69  44  40 SW16G23   29.97F
BIG RAPIDS     SUNNY     63  40  43 W21G28    29.91R
COLDWATER      PTSUNNY   65  47  51 SW13G18   29.99S
FREMONT        FAIR      63  41  45 SW15G21   29.93F
HOLLAND        MOSUNNY   66  45  46 SW20G29   29.97F
GRAND RAPIDS   MOSUNNY   65  45  48 SW22      29.96S
IONIA          FAIR      66  45  46 SW17G25   29.94S
KALAMAZOO      MOSUNNY   69  41  36 W15G25    29.98F
LUDINGTON      SUNNY     60  45  58 S18       29.90F
MARSHALL       MOSUNNY   68  45  44 W12G22    29.97S
MOUNT PLEASANT SUNNY     66  41  39 W15G21    29.90S
MUSKEGON       PTSUNNY   62  44  51 SW15      29.95F
SOUTH HAVEN    SUNNY     67  45  43 SW16G26   29.97S
$$
MIZ016>042-222100-
NORTHERN LOWER MICHIGAN

CITY           SKY/WX    TMP DP  RH WIND       PRES   REMARKS
ALPENA         CLOUDY    57  43  59 SW16G24   29.87R
BEAVER ISLAND  SUNNY     55  43  64 SW16G25   29.84R
BELLAIRE       CLOUDY    57  40  52 W8G24     29.88S
CADILLAC       MOSUNNY   61  40  46 SW16G28   29.88S
CHARLEVOIX     SUNNY     57  44  61 SW18G28   29.89S
FRANKFORT      SUNNY     57  42  55 S15G29    29.89S
GAYLORD        PTSUNNY   58  39  49 W28       29.87R
GRAYLING       PTSUNNY   60  40  46 W12G22    29.87F
HARBOR SPRINGS CLOUDY    52  43  71 W9        29.86S
HOUGHTON LAKE  MOSUNNY   61  39  44 W16G25    29.88F
MANISTEE       MOSUNNY   62  44  51 SW13G23   29.89F
OSCODA         PTSUNNY   62  40  44 W15G26    29.88S
PELLSTON       PTSUNNY   56  41  57 SW14G28   29.86R
ROGERS CITY    CLOUDY    55  44  64 W10G21    29.86R
TRAVERSE CITY  PTSUNNY   63  40  42 W17G25    29.86S
$$
MIZ007>008-015-222100-
EASTERN UPPER MICHIGAN

CITY           SKY/WX    TMP DP  RH WIND       PRES   REMARKS
KINROSS        CLOUDY    51  48  89 SW9       29.82R
MACKINAC ISLAN PTSUNNY   51  45  81 SW16G25   29.84R
NEWBERRY       CLOUDY    52  51  96 SW8       29.80R
S. S. MARIE    LGT RAIN  52  49  89 W8        29.81R FOG
MUNISING         N/A     56  44  64 SW8G17    29.78R
$$
MIZ004>006-011>014-085-222100-
CENTRAL UPPER MICHIGAN

CITY           SKY/WX    TMP DP  RH WIND       PRES   REMARKS
MANISTIQUE     CLOUDY    47  43  85 S6        29.82R
ESCANABA       CLOUDY    60  41  49 W12       29.80S
MENOMINEE      CLOUDY    64  42  44 W8G20     29.81F
SAWYER-GWINN   CLOUDY    55  41  58 SW15      29.78S
$$
MIZ001>003-009>011-084-222100-
WESTERN UPPER MICHIGAN

CITY           SKY/WX    TMP DP  RH WIND       PRES   REMARKS
IRON MOUNTAIN  CLOUDY    58  38  47 W10       29.77S
HOUGHTON       CLOUDY    52  41  66 W16       29.76R
COPPER HARBOR    N/A     50  43  77 N14       29.75R
IRONWOOD       LGT RAIN  49  44  83 W12G23    29.79R
$$

ABBREVIATIONS USED IN REMARKS
   TC - TEMPERATURE IN CELSIUS
  WCI - WIND CHILL INDEX
   HX - HEAT INDEX
  VSB - VISIBILITY





USA.gov is the U.S. government's official web portal to all federal, state and local government web resources and services.